Bettles, AK

8:43 AM AKST on November 19, 2019 (GMT -0900)
Bettles

Weather History for PABT - May, 2019

Change the Weather History Date:

Monday, May 13, 2019

  Actual Average Record
Temperature  
Mean Temperature 43 °F -  
Max Temperature 52 °F 51 °F 68 °F (2016)
Min Temperature 34 °F 33 °F 10 °F (2013)
Degree Days  
Heating Degree Days 22    
Moisture  
Dew Point 31 °F    
Average Humidity 61    
Maximum Humidity 82    
Minimum Humidity 39    
Precipitation  
Precipitation 0.00 in - - ()
Snow  
Snow 0.00 in - - ()
Snow Depth 15.00 in    
Sea Level Pressure  
Sea Level Pressure 30.01 in    
Wind  
Wind Speed 7 mph (NNE)    
Max Wind Speed 15 mph    
Max Gust Speed 22 mph    
Visibility 10 miles    
Events Rain    
Averages and records for this station are not official NWS values.
T = Trace of Precipitation, MM = Missing Value Source: NWS Daily Summary

Daily Weather History Graph

Daily Weather History Graph

Search for Another Location

Airport or City:

Astronomy

May. 13, 2019 Rise Set
Actual Time 4:22 AM AKDT 11:46 PM AKDT
Civil Twilight 2:34 AM AKDT 1:30 AM AKDT
Nautical Twilight Sun does not rise Sun does not rise
Astronomical Twilight Sun does not rise Sun does not rise
Moon 2:39 PM AKDT (5/13) 5:25 AM AKDT (5/13)
Length of Visible Light 22h 55m
Length of Day
19h 23m
Waxing Gibbous, 70% of the Moon is Illuminated
May 13
Waxing Gibbous
May 18
Full
May 26
Last Quarter
Jun 3
New
Jun 9
First Quarter

Hourly Weather History & Observations

Time (AKDT) Temp. Windchill Dew Point Humidity Pressure Visibility Wind Dir Wind Speed Gust Speed Precip Events Conditions
12:53 AM 37.0 °F 33.3 °F 30.9 °F 79% 30.04 in 10.0 mi NNW 4.6 mph - N/A   Scattered Clouds
1:53 AM 36.0 °F 31.1 °F 30.9 °F 82% 30.05 in 10.0 mi NW 5.8 mph - N/A   Scattered Clouds
2:53 AM 35.1 °F 31.0 °F 30.0 °F 82% 30.05 in 10.0 mi NNW 4.6 mph - N/A   Partly Cloudy
3:53 AM 34.0 °F 29.8 °F 28.9 °F 82% 30.05 in 10.0 mi NNW 4.6 mph - N/A   Partly Cloudy
4:53 AM 34.0 °F 29.8 °F 28.0 °F 79% 30.05 in 10.0 mi NNW 4.6 mph - N/A   Partly Cloudy
5:53 AM 37.0 °F 31.0 °F 28.0 °F 70% 30.04 in 10.0 mi North 8.1 mph - N/A   Partly Cloudy
6:53 AM 39.0 °F 32.8 °F 28.9 °F 67% 30.04 in 10.0 mi North 9.2 mph - N/A   Partly Cloudy
7:53 AM 41.0 °F 35.8 °F 28.9 °F 62% 30.04 in 10.0 mi North 8.1 mph - N/A   Partly Cloudy
8:53 AM 44.1 °F 40.8 °F 28.9 °F 55% 30.03 in 10.0 mi North 5.8 mph - N/A   Scattered Clouds
9:53 AM 45.0 °F 40.1 °F 28.0 °F 52% 30.03 in 10.0 mi North 9.2 mph - N/A   Mostly Cloudy
10:53 AM 46.0 °F 42.5 °F 28.0 °F 50% 30.03 in 10.0 mi NE 6.9 mph - N/A   Mostly Cloudy
11:53 AM 46.9 °F - 32.0 °F 56% 30.04 in 10.0 mi Variable 6.9 mph - 0.00 in   Overcast
12:53 PM 44.1 °F 40.1 °F 35.1 °F 71% 30.04 in 8.0 mi North 6.9 mph - 0.04 in Rain Light Rain
1:53 PM 46.0 °F 39.9 °F 33.1 °F 61% 30.02 in 10.0 mi NNE 13.8 mph 20.7 mph 0.00 in   Mostly Cloudy
2:53 PM 48.0 °F - 33.1 °F 56% 30.01 in 10.0 mi NNE 13.8 mph - N/A   Mostly Cloudy
3:53 PM 48.9 °F - 33.1 °F 54% 30.00 in 10.0 mi NNE 8.1 mph 18.4 mph N/A   Mostly Cloudy
4:53 PM 48.9 °F - 32.0 °F 52% 29.99 in 10.0 mi NNE 10.4 mph - N/A   Mostly Cloudy
5:53 PM 52.0 °F - 32.0 °F 47% 29.97 in 10.0 mi NE 12.7 mph 20.7 mph N/A   Scattered Clouds
6:53 PM 48.0 °F - 33.1 °F 56% 29.96 in 10.0 mi NNE 12.7 mph 18.4 mph 0.00 in Rain Light Rain
7:53 PM 48.9 °F - 33.1 °F 54% 29.96 in 10.0 mi NNE 8.1 mph - 0.00 in   Scattered Clouds
8:53 PM 48.9 °F - 32.0 °F 52% 29.95 in 10.0 mi NNE 15.0 mph 21.9 mph N/A   Scattered Clouds
9:53 PM 46.9 °F - 32.0 °F 56% 29.95 in 10.0 mi NNE 9.2 mph - N/A   Mostly Cloudy
10:53 PM 46.9 °F - 32.0 °F 56% 29.95 in 10.0 mi NE 13.8 mph 21.9 mph 0.00 in Rain Light Rain
11:53 PM 44.1 °F 39.5 °F 32.0 °F 63% 29.96 in 10.0 mi NNE 8.1 mph - 0.00 in   Overcast